Regional Weather Roundup
Issued by NWS

Home | Current Version | Previous Version | Text Only | Print | Product List | Glossary Off
Versions: 1 2 3 4 5 6 7 8 9 10 11 12 13 14 15 16 17 18 19 20 21 22 23 24 25 26 27 28 29 30 31 32 33 34 35 36 37 38 39 40 41 42 43 44 45 46 47 48 49 50

000
ASUS45 KBOI 302010
RWRID

IDAHO REGIONAL WEATHER ROUNDUP
NATIONAL WEATHER SERVICE BOISE ID
200 PM MDT SUN APR 30 2017

NOTE: "FAIR" INDICATES FEW OR NO CLOUDS BELOW 12000 FEET
WITH NO SIGNIFICANT WEATHER AND/OR OBSTRUCTIONS TO VISIBILITY

IDZ012-014-302100-
SOUTHWEST IDAHO


CITY           SKY/WX    TMP DP  RH WIND       PRES   REMARKS
BOISE          CLOUDY    62  37  39 N9        30.11F
CALDWELL       CLOUDY    62  41  46 VRB6      30.11F
MOUNTAIN HOME  MOSUNNY   62  39  42 NW16      30.11F
$$

IDZ016-017-302100-
SOUTHCENTRAL IDAHO


CITY           SKY/WX    TMP DP  RH WIND       PRES   REMARKS
BURLEY         CLOUDY    55  33  43 W22G29    30.10S
JEROME         PTSUNNY   60  37  42 W21G29    30.11F
TWIN FALLS     PTSUNNY   59  37  44 W17G23    30.12F
$$

IDZ019>023-302100-
SOUTHEAST IDAHO


CITY           SKY/WX    TMP DP  RH WIND       PRES   REMARKS
IDAHO FALLS    CLOUDY    52  34  50 SW9       30.09F
POCATELLO      CLOUDY    56  30  37 W17       30.09F
REXBURG        CLOUDY    51  31  46 SW10      30.07F
$$

IDZ006-010-011-018-031-032-302100-
CENTRAL IDAHO MOUNTAINS


CITY           SKY/WX    TMP DP  RH WIND       PRES   REMARKS
MCCALL         CLOUDY    50  32  50 SW12      30.08F
HAILEY         MOSUNNY   55  34  44 E9        30.06F
STANLEY          N/A     47  27  45 VRB5      30.12F
SALMON         CLOUDY    55  36  47 NE10      29.99F
CHALLIS        CLOUDY    51  31  46 SE5       30.05F
$$

IDZ002-004-006-007-026-302100-
NORTHERN IDAHO


CITY           SKY/WX    TMP DP  RH WIND       PRES   REMARKS
LEWISTON       MOSUNNY   64  32  30 W18G26    30.04S
LOWELL           N/A     59  49  69 CALM      30.06F
COEUR D`ALENE  CLOUDY    55  34  45 W14       30.00F
MULLAN PASS    CLOUDY    34  34 100 SW8       29.99S WCI  27
$$



USA.gov is the U.S. government's official web portal to all federal, state and local government web resources and services.